Location: Bonningues
(50.7927°N, 2.0150°E)
Time: 05:54:05
(UTC+00:00)

SL-16 R/B - Pass Details

Date: 08 August 2020
Orbit: 843 x 845 km, 71.0° (Epoch: 23 September)

Event Time Altitude Azimuth Distance (km) Brightness Sun altitude
Rises 21:32:37 0° 331° (NNW) 3,417 7.1 -16.2°
Reaches altitude 10° 21:35:06 10° 334° (NNW) 2,478 5.9 -16.5°
Maximum altitude 21:40:46 64° 56° (ENE) 938 2.4 -17.0°
Enters shadow 21:43:49 27° 130° (SE) 1,557 3.0 -17.3°
